Temp
19 19 19 19 19 19 19 19 19 19 18 18 18 18 18 18 18 18 18 18 17 17 16 17 17 17 16 16 17 17 17 17 16
19 19 19 19 19 18 18 19 19 19 18 18 18 18 18 19 19 19 18 17 17 17 17 16 16 16 16 16 16 17 16 16 16
18 18 19 18 19 18 18 18 19 18 18 18 18 18 18 18 19 19 18 18 17 17 16 16 16 16 16 16 17 16 15 15 16
18 18 18 19 18 18 18 18 19 18 18 18 18 18 18 18 18 18 18 18 17 17 17 16 16 16 17 17 16 16 15 15 15
18 18 18 18 18 18 18 18 18 18 18 18 18 18 18 18 19 19 18 18 17 17 17 17 17 17 16 16 16 16 16 15 15
18 18 18 18 18 18 18 18 18 18 18 18 18 18 18 18 18 18 19 18 17 17 16 16 17 17 17 16 15 15 15 14 15
18 18 18 18 17 17 18 18 18 17 17 17 17 18 18 18 18 19 18 18 17 16 16 16 16 16 16 15 15 15 15 15 14
18 18 18 18 17 17 17 17 17 17 17 17 18 18 18 18 18 18 18 18 17 16 16 15 16 16 15 15 15 14 15 14 14
17 17 18 17 17 17 17 17 17 17 16 17 17 18 18 18 17 18 18 17 17 16 16 15 15 15 16 15 14 15 14 14 14
17 17 17 18 17 16 17 17 17 18 17 16 18 18 18 17 17 18 17 17 17 16 15 16 15 15 15 15 16 17 15 15 14
17 17 16 17 16 16 16 17 17 17 17 16 17 17 18 17 18 18 17 17 17 16 16 15 16 15 15 15 15 15 15 15 14
17 17 16 17 16 15 16 16 16 16 17 16 17 17 18 18 18 17 17 17 17 17 16 16 15 15 15 15 14 14 14 14 13
15 15 15 16 15 15 14 14 15 15 16 16 17 17 18 18 18 17 17 17 17 17 16 16 16 15 15 15 15 14 14 14 13
15 14 15 15 14 14 14 14 14 14 14 15 16 18 18 18 17 17 17 17 17 17 17 17 16 16 15 15 15 14 14 13 13
13 13 13 13 14 14 14 14 13 14 15 15 16 18 18 18 17 17 17 16 16 17 17 17 16 16 16 15 15 14 14 13 13
12 11 12 12 13 13 14 14 14 14 14 14 14 15 16 17 17 17 16 16 16 16 16 16 16 16 16 15 15 14 14 13 13
10 9 9 9 11 12 12 13 14 14 14 14 15 14 14 13 15 15 16 16 16 16 16 16 16 16 16 15 15 15 14 14 13
6 6 6 8 8 8 9 10 11 13 14 14 15 13 14 13 13 14 15 15 16 16 16 16 16 15 16 16 15 15 15 14 14
4 4 4 5 5 6 6 7 9 10 13 13 13 13 14 13 12 13 13 14 15 15 15 15 15 15 15 15 15 15 15 15 14
3 3 3 3 3 4 4 5 6 6 7 10 11 11 10 11 12 12 13 12 13 13 14 15 15 15 15 15 15 15 15 15 15
Height
821 822 822 824 825 827 828 830 831 833 834 835 836 838 839 840 840 842 843 845 847 848 848 849 850 851 853 853 854 855 857 857 857
818 821 822 822 825 827 828 829 831 832 834 836 838 839 840 841 841 842 844 846 848 849 850 851 852 853 854 854 855 857 858 858 859
817 819 820 822 823 825 827 829 831 832 833 835 837 839 840 842 841 842 844 845 848 850 851 851 852 853 854 856 857 859 859 860 861
817 817 818 819 822 823 825 827 829 831 833 834 836 838 840 841 841 842 844 845 848 849 850 851 852 853 855 857 858 859 860 861 862
815 816 818 817 818 820 823 825 827 829 831 833 835 837 838 840 840 841 843 844 847 848 849 851 852 854 856 858 859 860 861 862 864
812 814 815 816 817 817 820 822 825 826 829 831 833 835 836 838 839 840 841 842 845 847 849 850 852 855 856 858 860 861 862 863 865
809 811 812 814 816 818 818 819 821 824 826 829 830 831 834 836 837 838 839 840 843 845 846 848 850 852 855 857 858 861 863 864 866
806 808 809 810 813 815 817 817 818 823 824 827 828 829 831 834 835 837 837 838 841 843 844 846 848 850 853 855 857 859 862 864 866
802 804 805 806 808 810 813 814 816 816 823 821 826 826 829 831 833 834 835 837 838 840 842 845 847 848 851 853 855 857 860 862 866
800 801 803 803 805 808 810 812 814 815 815 819 818 823 826 828 829 831 832 834 836 838 840 842 845 847 849 851 852 854 858 860 863
798 799 800 801 803 804 807 809 810 812 813 814 814 817 821 824 825 826 829 831 833 835 837 840 842 845 847 849 851 852 854 856 860
796 797 798 798 800 800 802 808 811 810 811 811 813 816 816 818 821 823 825 828 830 832 832 836 839 841 843 846 849 851 851 852 856
795 797 797 798 797 798 800 796 805 807 807 809 809 811 812 813 816 820 823 824 827 829 830 831 835 837 840 842 844 848 850 850 853
793 794 795 794 795 781 793 791 799 801 804 803 804 805 807 808 811 815 818 821 823 825 826 827 830 833 835 838 840 843 846 848 850
791 791 792 790 790 791 788 787 794 795 795 797 799 798 802 804 806 809 812 816 819 822 822 824 826 827 830 833 836 839 841 844 846
791 790 789 788 787 786 788 790 781 790 791 792 792 794 797 797 800 804 806 811 814 817 819 820 822 823 825 827 830 833 836 838 841
793 792 790 788 785 784 786 787 784 782 785 784 788 789 794 793 794 798 801 804 808 810 814 816 817 818 820 822 825 828 831 833 836
795 792 791 789 787 785 785 783 782 778 774 773 777 781 779 786 788 791 794 798 800 803 807 809 813 815 816 818 821 823 826 828 830
798 795 794 791 788 786 784 782 779 777 772 774 764 769 771 775 780 784 786 790 793 796 800 803 806 809 812 814 816 818 820 823 826
800 798 796 792 791 790 786 782 780 778 777 773 771 766 772 763 769 776 779 784 787 790 793 796 799 803 806 808 810 812 814 817 819
Wind_Speed
7 7 8 7 11 12 13 13 11 11 12 18 19 18 17 18 18 15 14 14 12 13 14 15 15 14 14 17 20 20 18 18 20
9 9 8 10 10 11 14 15 13 12 12 16 17 15 15 17 15 13 10 13 12 11 13 14 13 15 16 18 18 18 18 20 20
11 11 11 11 13 14 15 16 13 13 13 18 16 15 16 14 14 13 13 11 12 11 12 12 16 14 20 17 15 17 18 18 18
12 13 14 15 14 16 16 17 15 13 13 19 18 15 15 14 15 13 14 11 13 11 12 16 15 17 16 12 15 15 20 19 18
14 13 15 17 18 18 18 18 18 16 13 13 19 17 13 7 16 13 10 7 13 14 15 17 17 15 15 13 12 13 18 18 17
16 17 16 18 20 21 19 19 20 19 18 16 18 20 16 8 17 15 11 13 16 16 18 17 17 14 13 12 13 15 17 18 16
17 17 19 20 22 22 20 19 19 17 17 18 19 21 20 13 13 15 13 14 18 17 21 21 20 17 15 17 18 20 17 14 14
16 17 20 22 23 24 22 20 19 14 15 15 17 20 21 18 16 18 17 17 18 19 24 23 21 17 20 19 21 20 17 15 13
18 18 19 25 28 30 28 26 23 27 20 17 16 16 20 17 19 20 22 21 21 21 22 22 21 20 22 22 22 20 18 15 11
19 19 21 24 28 30 29 28 27 27 22 22 17 19 22 20 25 22 23 23 23 22 22 24 23 22 23 24 22 19 19 15 14
20 21 23 25 30 30 30 30 28 27 26 28 24 27 27 24 25 23 25 23 24 22 22 24 25 23 22 24 22 21 20 18 18
15 21 23 26 32 31 29 27 30 33 32 31 26 30 27 27 24 23 25 22 20 24 25 24 28 26 26 24 22 22 21 20 21
6 10 19 26 30 31 31 30 33 30 31 31 30 31 29 28 27 27 26 25 23 22 24 22 27 28 27 26 24 23 21 20 22
4 5 9 14 21 31 35 35 34 27 29 31 33 33 34 30 31 31 29 27 25 24 23 22 24 29 28 27 26 25 23 23 22
11 9 8 9 15 18 20 27 30 32 33 30 28 34 33 34 34 34 31 30 28 28 25 24 25 27 31 29 26 26 26 25 23
16 15 13 12 11 13 18 22 34 34 30 23 22 26 29 31 36 36 33 32 31 30 27 26 26 28 29 30 30 29 29 29 27
12 12 14 13 14 16 17 17 20 27 30 21 12 7 12 22 31 34 34 36 32 33 31 29 29 28 28 29 30 30 30 30 28
15 13 12 10 10 11 11 11 16 21 26 36 12 3 6 6 18 32 34 36 36 34 35 32 30 28 28 28 29 29 30 30 31
24 22 20 19 18 17 16 12 11 15 16 16 26 21 7 4 3 22 31 36 37 39 36 35 33 31 30 28 26 27 29 30 29
26 26 26 26 24 21 21 23 20 14 14 8 11 18 16 10 3 4 12 24 29 33 39 38 34 33 32 32 31 28 28 28 29
Wind_Direction
205 192 176 163 156 159 147 144 141 145 142 141 136 130 133 141 136 131 122 114 116 116 117 119 123 127 137 124 119 117 118 124 115
199 201 196 180 172 165 159 151 154 158 156 155 147 141 145 151 146 142 142 130 125 125 127 129 132 137 135 127 120 123 127 121 113
213 207 203 195 182 172 167 159 167 173 168 171 164 151 155 156 161 157 155 136 142 137 140 137 138 144 133 131 134 131 134 120 122
226 221 207 199 193 181 176 172 176 183 183 177 176 167 165 169 171 169 158 145 155 157 165 157 153 139 139 140 130 137 137 129 124
231 229 222 208 196 187 187 184 182 187 194 191 188 185 185 192 188 181 177 193 170 167 164 152 146 149 139 152 153 149 144 130 129
236 229 225 222 210 195 194 196 196 192 197 202 198 197 196 201 182 187 194 186 179 177 177 168 162 173 176 166 168 158 140 131 134
239 235 229 222 219 213 202 198 196 199 206 212 209 208 209 211 196 198 200 192 182 183 189 174 169 172 178 167 160 154 146 149 140
239 237 228 221 214 212 209 197 190 199 206 220 220 215 212 213 209 217 200 202 187 188 171 170 170 171 172 175 164 154 155 143 142
235 237 230 218 211 209 206 202 195 197 205 215 222 217 211 202 210 207 209 199 192 191 185 178 175 172 171 169 163 163 162 163 187
242 241 234 220 210 211 210 211 209 202 198 209 201 217 209 226 210 211 210 205 209 199 190 188 182 178 179 178 182 192 179 185 193
247 243 235 220 211 210 213 216 215 208 204 209 215 221 213 215 212 207 201 206 213 203 196 195 189 188 189 187 188 188 187 194 193
254 248 239 236 221 216 216 224 226 223 219 218 220 227 216 202 203 199 196 197 196 207 199 206 197 191 191 192 192 190 184 194 186
266 278 262 256 234 224 224 214 225 231 224 229 219 226 212 205 207 201 201 201 198 199 207 207 209 201 197 196 195 194 193 201 191
339 320 299 284 260 221 223 220 218 224 227 230 233 222 214 206 202 202 206 207 205 203 204 209 209 210 208 206 200 196 198 195 195
355 343 318 314 287 283 244 213 218 220 229 237 234 223 220 214 208 204 208 211 212 211 208 209 212 212 210 212 211 202 197 201 201
338 330 324 316 299 301 300 254 219 228 230 224 228 229 213 210 211 213 207 210 216 217 217 217 218 213 215 217 215 210 204 202 203
2 345 338 331 325 301 296 299 257 239 224 217 211 216 230 221 214 215 217 210 214 216 221 225 222 219 217 218 219 220 214 208 208
41 37 29 20 14 349 321 315 320 262 240 223 199 170 213 175 211 215 216 216 214 214 218 224 228 225 224 224 223 226 227 221 216
56 53 50 52 48 39 23 3 339 336 269 257 220 226 185 185 162 213 216 221 224 223 222 224 227 228 228 229 229 229 228 232 229
52 51 48 45 43 43 41 40 33 17 7 300 306 227 236 176 141 177 198 219 227 230 228 225 226 228 231 231 232 234 233 235 237